#timestamp,LO_Frequency,Hit 
1503878415.8,286047001.5,N
1503878435.7,286047000.2,N
1503878455.5,286047002.3,N
1503878475.3,286047000.0,N
1503878495.2,286047001.2,N
1503878515.9,286046999.1,N
1503878535.7,286046998.7,N
1503878555.5,286047002.0,N
1503878575.4,286047002.0,N
1503878595.2,286047004.4,N
1503878615.0,286047003.9,N
1503878615.9,286047003.9,N
1503878635.8,286047003.4,N
1503878655.6,286047003.6,N
1503878675.4,286047009.0,P
1503878695.3,286047001.5,N
1503878715.1,286047003.3,N
1503878735.8,286047001.4,N
1503878755.7,286047006.8,N
1503878775.5,286047007.3,N
1503878795.3,286047005.9,N
1503878815.2,286047004.8,N
1503878835.9,286047005.4,N
1503878855.7,286047008.8,P
1503878875.6,286047002.1,N
1503878895.4,286047002.3,N
1503878915.2,286047000.3,N
1503878935.1,286047000.3,N
1503878936.0,286047000.3,N
1503878955.8,286047002.5,N
1503878975.6,286047001.3,N
1503878995.5,286047002.6,N
1503879015.3,286046999.4,N
1503879035.1,286046996.9,N
1503879055.9,286046997.1,N
1503879075.7,286046997.0,N
1503879095.5,286046997.1,N
1503879115.3,286046997.8,N
1503879135.2,286046994.9,N
1503879155.0,286046997.1,N
1503879155.9,286046997.1,N
1503879175.7,286047000.8,N
1503879195.6,286046997.3,N
1503879215.4,286046995.0,N
1503879235.2,286046997.6,N
1503879255.1,286046997.9,N
1503879256.0,286046997.9,N
1503879275.8,286046997.7,N
1503879295.6,286046994.9,N
1503879315.5,286046995.8,N
1503879335.3,286046995.3,N
1503879355.1,286046999.6,N
1503879375.9,286046999.4,N
1503879395.7,286046996.8,N
1503879415.5,286047000.4,N
1503879435.3,286046998.6,N
1503879455.2,286046998.5,N
1503879475.0,286046998.6,N
1503879475.9,286046998.6,N
1503879495.7,286046999.2,N
1503879515.6,286046997.4,N
1503879535.4,286046996.9,N
1503879555.2,286046997.0,N
1503879575.1,286046996.5,N
1503879576.0,286046996.5,N
1503879595.8,286046999.2,N
1503879615.6,286046999.2,N
1503879635.5,286046996.5,N
1503879655.3,286046997.0,N
1503879675.1,286046996.6,N
1503879695.9,286046998.6,N
1503879715.7,286047002.2,N
1503879735.5,286047002.1,N
1503879755.4,286047000.7,N
1503879775.2,286046999.5,N
1503879795.0,286046997.3,N
1503879795.9,286046997.3,N
1503879815.8,286046997.5,N
1503879835.6,286046997.1,N
1503879855.4,286047000.9,N
1503879875.2,286047002.4,N
1503879895.1,286047000.9,N
1503879896.0,286047000.9,N
1503879915.8,286046998.6,N
1503879935.6,286046999.1,N
1503879955.5,286046998.2,N
1503879975.3,286046998.1,N
1503879995.1,286046998.1,N
1503880015.9,286046998.5,N
1503880035.7,286046998.3,N
1503880055.5,286047000.2,N
1503880075.4,286046998.7,N
1503880095.2,286047000.3,N
1503880115.0,286047000.2,N
1503880115.9,286047000.2,N
1503880135.8,286047000.3,N
1503880155.6,286047002.8,N
1503880175.4,286047004.4,N
1503880195.3,286047004.4,N
1503880215.1,286047001.9,N
1503880216.0,286047001.9,N
1503880235.8,286047002.3,N
1503880255.7,286047002.5,N
1503880275.5,286047001.8,N
1503880295.3,286047003.6,N
1503880315.1,286047003.7,N
1503880335.9,286047005.1,N
1503880355.7,286047004.5,N
1503880375.5,286047006.1,N
1503880395.4,286047008.4,P
1503880415.2,286047007.5,N
1503880435.0,286047007.4,N
1503880436.0,286047007.4,N
1503880455.8,286047009.1,P
1503880475.6,286047000.7,N
1503880495.5,286046998.7,N
1503880515.3,286046998.1,N
1503880535.1,286047000.4,N
1503880555.8,286047000.0,N
1503880575.7,286047001.2,N
1503880595.5,286046999.6,N
1503880615.3,286047000.6,N
1503880635.2,286046999.9,N
1503880655.0,286046999.3,N
1503880655.9,286046999.3,N
1503880675.7,286046998.7,N
1503880695.6,286046998.1,N
1503880715.4,286046999.7,N
1503880735.2,286047000.4,N
1503880755.1,286046999.2,N
1503880756.0,286046999.2,N
1503880775.8,286046999.5,N
1503880795.6,286046996.6,N
1503880815.5,286046998.8,N
1503880835.3,286046999.6,N
1503880855.1,286046998.7,N
1503880875.9,286047000.9,N
1503880895.7,286047002.4,N
1503880915.5,286047002.1,N
1503880935.3,286047002.7,N
1503880955.2,286047001.9,N
1503880975.0,286047000.2,N
1503880975.9,286047000.2,N
1503880995.7,286046998.5,N
1503881015.6,286047000.6,N
1503881035.4,286047004.0,N
1503881055.2,286047003.4,N
1503881075.1,286047005.4,P
1503881076.0,286047005.4,N
1503881095.8,286047005.4,N
1503881115.7,286047007.4,P
1503881135.5,286047001.9,N
1503881155.3,286047002.3,N
1503881175.1,286047000.1,N
1503881195.9,286046998.6,N
1503881215.7,286046998.1,N
1503881235.5,286046998.4,N
1503881255.4,286046998.4,N
1503881275.2,286046997.3,N
1503881295.0,286046997.5,N
1503881295.9,286046997.5,N
1503881315.8,286046999.0,N
1503881335.6,286046999.4,N
1503881355.4,286046997.9,N
1503881375.3,286046998.5,N
1503881395.1,286046999.3,N
1503881396.0,286046999.3,N
1503881415.8,286046996.6,N
1503881435.7,286046997.1,N
1503881455.5,286046999.4,N
1503881475.3,286046996.5,N
1503881495.1,286046998.1,N
1503881515.9,286046998.7,N
1503881535.7,286046997.9,N
1503881555.5,286046999.6,N
1503881575.4,286046996.9,N
1503881595.2,286046998.4,N
1503881615.0,286047002.5,N
1503881615.9,286047002.5,N
1503881635.8,286046999.7,N
1503881655.6,286047002.4,N
1503881675.4,286046999.0,N
1503881695.3,286046997.3,N
1503881715.1,286046995.4,N
1503881716.0,286046995.4,N
1503881735.8,286046995.4,N
1503881755.7,286046995.1,N
1503881775.5,286046996.2,N
1503881795.3,286046995.6,N
1503881815.2,286046993.5,P
1503881835.9,286046996.5,N
1503881855.7,286046998.2,N
1503881875.6,286046996.9,N
1503881895.4,286046999.4,N
1503881915.2,286047001.1,N
1503881935.0,286046998.4,N
1503881936.0,286046998.4,N
1503881955.8,286046997.8,N
1503881975.6,286046997.0,N
1503881995.4,286046997.2,N
